Satellite: ASTRA 1B
Catalog number: 21139
Epoch time:      103023.00000000
Element set:     158 
Inclination:        0.0122 deg
RA of node:       319.8851 deg
Eccentricity:    0.0002995
Arg of perigee:    65.1991 deg
Mean anomaly:     116.0459 deg
Mean motion:    1.00273184 rev/day
Decay rate:    1.2399E-006 rev/day^2
Epoch rev:            3192
Checksum:              241

Satellite: METEOSAT 5 (MO
Catalog number: 21140
Epoch time:      103025.68493630
Element set:     690 
Inclination:        5.5763 deg
RA of node:        70.1202 deg
Eccentricity:    0.0009230
Arg of perigee:   111.9931 deg
Mean anomaly:     251.9852 deg
Mean motion:    1.00268501 rev/day
Decay rate:    1.8000E-007 rev/day^2
Epoch rev:            4581
Checksum:              254

Satellite: NOAA 12
Catalog number: 21263
Epoch time:      103027.92869858
Element set:     953 
Inclination:       98.6239 deg
RA of node:        17.9264 deg
Eccentricity:    0.0013748
Arg of perigee:    84.4191 deg
Mean anomaly:     275.8555 deg
Mean motion:   14.25065514 rev/day
Decay rate:    3.0900E-006 rev/day^2
Epoch rev:           60813
Checksum:              331

Satellite: OSCAR 22 (UoSA
Catalog number: 21575
Epoch time:      103027.95468616
Element set:     715 
Inclination:       98.1387 deg
RA of node:        21.1691 deg
Eccentricity:    0.0006942
Arg of perigee:   192.1047 deg
Mean anomaly:     167.9976 deg
Mean motion:   14.39138869 rev/day
Decay rate:    3.1800E-006 rev/day^2
Epoch rev:           60517
Checksum:              344

Satellite: METEOR 3-5
Catalog number: 21655
Epoch time:      103027.94635861
Element set:     556 
Inclination:       82.5540 deg
RA of node:        54.1419 deg
Eccentricity:    0.0012274
Arg of perigee:   252.7843 deg
Mean anomaly:     107.1938 deg
Mean motion:   13.16979303 rev/day
Decay rate:    5.1000E-007 rev/day^2
Epoch rev:           55063
Checksum:              304

Satellite: UARS
Catalog number: 21701
Epoch time:      103027.81114155
Element set:     811 
Inclination:       56.9808 deg
RA of node:       120.1119 deg
Eccentricity:    0.0005353
Arg of perigee:   115.4183 deg
Mean anomaly:     244.7421 deg
Mean motion:   15.02812402 rev/day
Decay rate:    8.1099E-006 rev/day^2
Epoch rev:           62244
Checksum:              259

Satellite: EUTELSAT 2-F3
Catalog number: 21803
Epoch time:      103026.02195603
Element set:     512 
Inclination:        2.5422 deg
RA of node:        89.3713 deg
Eccentricity:    0.0004117
Arg of perigee:   184.7751 deg
Mean anomaly:     240.1243 deg
Mean motion:    1.00271213 rev/day
Decay rate:    1.2799E-006 rev/day^2
Epoch rev:            3676
Checksum:              255

Satellite: INMARSAT 2-F3
Catalog number: 21814
Epoch time:      103027.65678635
Element set:     606 
Inclination:        1.7002 deg
RA of node:        57.5920 deg
Eccentricity:    0.0004366
Arg of perigee:   283.4019 deg
Mean anomaly:     239.9397 deg
Mean motion:    1.00272644 rev/day
Decay rate:    1.0799E-006 rev/day^2
Epoch rev:            4067
Checksum:              302

Satellite: INMARSAT 2-F4
Catalog number: 21940
Epoch time:      103027.10714674
Element set:     566 
Inclination:        2.3697 deg
RA of node:        19.1309 deg
Eccentricity:    0.0001839
Arg of perigee:   267.5415 deg
Mean anomaly:     346.8359 deg
Mean motion:    1.00269578 rev/day
Decay rate:   -3.5499E-006 rev/day^2
Epoch rev:            3945
Checksum:              326

Satellite: EUTELSAT 2-F4
Catalog number: 22028
Epoch time:      103027.19145834
Element set:     324 
Inclination:        1.6618 deg
RA of node:        92.8656 deg
Eccentricity:    0.0005991
Arg of perigee:   214.6431 deg
Mean anomaly:     235.1575 deg
Mean motion:    1.00272066 rev/day
Decay rate:   -1.0200E-006 rev/day^2
Epoch rev:            3155
Checksum:              266

Satellite: OSCAR 23 (KITS
Catalog number: 22077
Epoch time:      103027.95490251
Element set:     167 
Inclination:       66.0807 deg
RA of node:       170.9887 deg
Eccentricity:    0.0015266
Arg of perigee:   279.6535 deg
Mean anomaly:      80.2759 deg
Mean motion:   12.86407842 rev/day
Decay rate:   -3.7000E-007 rev/day^2
Epoch rev:           49152
Checksum:              329

Satellite: ASTRA 1C
Catalog number: 22653
Epoch time:      103023.00000000
Element set:     784 
Inclination:        0.0122 deg
RA of node:       319.8851 deg
Eccentricity:    0.0002995
Arg of perigee:    65.1991 deg
Mean anomaly:     116.0096 deg
Mean motion:    1.00273184 rev/day
Decay rate:    1.2299E-006 rev/day^2
Epoch rev:            3062
Checksum:              240

Satellite: METEOR 2-21
Catalog number: 22782
Epoch time:      103027.83878185
Element set:     503 
Inclination:       82.5455 deg
RA of node:       232.1301 deg
Eccentricity:    0.0023416
Arg of perigee:    49.0145 deg
Mean anomaly:     311.3018 deg
Mean motion:   13.83530296 rev/day
Decay rate:    5.9000E-007 rev/day^2
Epoch rev:           47508
Checksum:              285

Satellite: KITSAT B
Catalog number: 22825
Epoch time:      103027.97562286
Element set:     489 
Inclination:       98.2762 deg
RA of node:        58.7706 deg
Eccentricity:    0.0008038
Arg of perigee:   329.8390 deg
Mean anomaly:      30.2329 deg
Mean motion:   14.28935116 rev/day
Decay rate:    1.3400E-006 rev/day^2
Epoch rev:           48679
Checksum:              333

Satellite: POSAT 1
Catalog number: 22826
Epoch time:      103027.58919124
Element set:     312 
Inclination:       98.2777 deg
RA of node:        59.5088 deg
Eccentricity:    0.0008993
Arg of perigee:   330.3264 deg
Mean anomaly:      29.7402 deg
Mean motion:   14.29157491 rev/day
Decay rate:    1.6599E-006 rev/day^2
Epoch rev:           48678
Checksum:              454

Satellite: ITAMSAT
Catalog number: 22828
Epoch time:      103028.13472776
Element set:     412 
Inclination:       98.2744 deg
RA of node:        60.2926 deg
Eccentricity:    0.0009634
Arg of perigee:   306.6802 deg
Mean anomaly:      53.3490 deg
Mean motion:   14.29500823 rev/day
Decay rate:    1.2100E-006 rev/day^2
Epoch rev:           45506
Checksum:              282

Satellite: EYESAT A
Catalog number: 22829
Epoch time:      103027.65791280
Element set:     437 
Inclination:       98.2762 deg
RA of node:        60.4336 deg
Eccentricity:    0.0009433
Arg of perigee:   308.6566 deg
Mean anomaly:      51.3772 deg
Mean motion:   14.29756805 rev/day
Decay rate:    2.1799E-006 rev/day^2
Epoch rev:           48692
Checksum:              340

Satellite: METEOSAT 6
Catalog number: 22912
Epoch time:      103027.20042825
Element set:     655 
Inclination:        2.6242 deg
RA of node:        82.5015 deg
Eccentricity:    0.0001095
Arg of perigee:   254.5893 deg
Mean anomaly:     230.4875 deg
Mean motion:    1.00275826 rev/day
Decay rate:    6.0999E-007 rev/day^2
Epoch rev:            3207
Checksum:              282

Satellite: GOES 8
Catalog number: 23051
Epoch time:      103026.26172133
Element set:     577 
Inclination:        0.2495 deg
RA of node:       106.1862 deg
Eccentricity:    0.0023166
Arg of perigee:   136.9921 deg
Mean anomaly:     260.8506 deg
Mean motion:    1.00282102 rev/day
Decay rate:   -2.4799E-006 rev/day^2
Epoch rev:            3957
Checksum:              280

Satellite: ASTRA 1D
Catalog number: 23331
Epoch time:      103026.05837964
Element set:     806 
Inclination:        0.0597 deg
RA of node:       230.8174 deg
Eccentricity:    0.0003549
Arg of perigee:    58.1812 deg
Mean anomaly:     241.1087 deg
Mean motion:    1.00271596 rev/day
Decay rate:    1.4099E-006 rev/day^2
Epoch rev:            3063
Checksum:              383

Satellite: RADIO ROSTO
Catalog number: 23439
Epoch time:      103027.65272699
Element set:     678 
Inclination:       64.8159 deg
RA of node:        76.9233 deg
Eccentricity:    0.0147388
Arg of perigee:   119.4887 deg
Mean anomaly:     242.0828 deg
Mean motion:   11.27547781 rev/day
Decay rate:   -3.8999E-007 rev/day^2
Epoch rev:           33312
Checksum:              366

Satellite: NOAA 14
Catalog number: 23455
Epoch time:      103028.58940416
Element set:     501 
Inclination:       99.1866 deg
RA of node:        46.6056 deg
Eccentricity:    0.0008663
Arg of perigee:   290.4351 deg
Mean anomaly:      69.6375 deg
Mean motion:   14.13289319 rev/day
Decay rate:    1.9700E-006 rev/day^2
Epoch rev:           41660
Checksum:              320

Satellite: HIMAWARI 5 (GM
Catalog number: 23522
Epoch time:      103027.04774986
Element set:     72 
Inclination:        1.7138 deg
RA of node:        83.7317 deg
Eccentricity:    0.0000527
Arg of perigee:    61.1980 deg
Mean anomaly:     138.2124 deg
Mean motion:    1.00265252 rev/day
Decay rate:   -2.8399E-006 rev/day^2
Epoch rev:            2866
Checksum:              292

Satellite: HOT BIRD 1
Catalog number: 23537
Epoch time:      103013.80550721
Element set:     533 
Inclination:        0.0070 deg
RA of node:       236.2796 deg
Eccentricity:    0.0008090
Arg of perigee:    86.9786 deg
Mean anomaly:      92.5958 deg
Mean motion:    1.00275871 rev/day
Decay rate:    1.0700E-006 rev/day^2
Epoch rev:            2861
Checksum:              279

Satellite: GOES 9
Catalog number: 23581
Epoch time:      103027.81249558
Element set:     491 
Inclination:        0.3322 deg
RA of node:       277.5412 deg
Eccentricity:    0.0013007
Arg of perigee:   249.7056 deg
Mean anomaly:     112.4139 deg
Mean motion:    1.00039677 rev/day
Decay rate:    9.9999E-009 rev/day^2
Epoch rev:            2815
Checksum:              310

